RH
27 26 26 25 24 23 22 22 21 20 19 16 14 13 12 11 11 12 12 11 11 11 10 9 10 10 10 10 9 9 9 9 8 8 8 7 7 7 8 10 10 10 10 9 8 8 8 8 8 10 13 13 13 13 12 11 11 11 14 15 14 13 12 12 12 14 17 16 14 15 19 21 21 20 22 27 28 29 30 29 29 29 27 30 31 35 37 35
27 26 25 26 25 23 24 24 23 22 21 20 17 13 11 11 11 12 13 12 11 11 11 10 10 10 10 10 9 9 9 9 8 8 7 7 7 7 7 9 10 11 11 10 9 8 9 9 10 12 13 13 12 12 12 11 11 11 14 15 13 13 12 11 12 15 17 16 15 15 18 21 21 20 20 25 30 31 34 34 32 32 33 33 33 35 36 35
27 27 26 26 26 26 26 25 23 22 21 21 20 16 12 11 12 12 13 13 12 11 11 10 10 10 10 10 9 9 9 9 9 10 10 10 9 7 7 8 9 11 11 11 9 8 10 11 13 13 13 13 13 12 12 12 12 12 13 13 13 12 12 11 12 15 17 16 15 15 18 19 19 20 20 24 28 31 35 35 35 37 38 36 35 36 37 38
27 28 28 28 28 28 27 26 24 22 21 20 21 21 16 13 12 12 13 14 13 11 10 11 11 10 10 10 9 9 8 11 14 15 13 12 11 8 8 8 9 10 11 11 10 10 11 12 14 13 13 13 13 13 13 13 13 13 13 13 13 13 12 12 12 15 18 17 15 14 16 16 18 20 20 21 23 27 32 30 30 33 35 36 36 37 39 41
27 28 29 29 28 28 28 26 24 23 21 21 21 23 21 16 14 14 14 14 13 11 10 10 11 11 10 9 9 8 10 16 21 19 17 15 12 9 8 8 8 8 10 11 10 10 11 13 13 13 13 13 14 14 13 13 13 13 13 13 13 13 13 12 12 14 16 16 15 13 13 14 15 18 18 17 17 21 27 26 24 25 28 33 35 38 41 43
25 27 29 29 29 28 27 26 25 23 22 21 21 24 24 19 15 16 16 14 13 11 11 10 10 10 9 9 8 7 12 19 22 21 20 18 15 11 8 8 8 8 9 10 9 10 10 12 12 14 14 13 14 14 13 13 13 13 13 13 13 13 13 13 13 13 14 15 14 13 13 14 14 16 17 17 17 18 22 23 23 24 27 30 34 38 43 47
25 26 28 29 30 28 27 26 26 24 23 22 23 24 25 21 18 17 16 14 13 12 11 9 9 9 9 8 8 9 13 16 18 19 18 17 16 13 10 9 8 8 9 9 9 10 11 12 14 15 14 13 13 13 13 13 13 13 13 12 13 13 12 13 13 14 14 14 13 13 13 13 14 15 19 23 21 20 23 24 24 27 32 33 36 41 46 51
26 25 26 28 29 29 28 27 27 26 24 24 24 25 26 25 22 18 16 14 13 12 10 9 8 8 8 8 9 13 14 12 14 16 16 15 13 12 11 10 9 8 9 9 10 11 13 14 16 16 15 13 14 13 13 14 13 13 13 13 12 13 13 12 13 13 14 13 13 13 12 13 13 15 22 28 25 22 25 27 28 31 35 37 41 45 48 51
26 25 25 26 28 28 29 28 27 27 26 25 25 26 27 27 24 19 15 13 12 11 10 9 8 8 8 9 13 16 15 14 15 17 16 13 11 10 9 10 9 8 8 9 11 13 15 15 16 16 15 13 13 13 13 13 13 13 12 13 13 12 13 12 12 12 14 14 13 12 12 13 13 14 23 31 29 26 27 30 32 34 37 40 43 47 51 55
26 25 25 25 26 27 28 28 27 27 26 26 26 26 27 26 24 20 16 13 12 10 10 9 8 9 9 11 15 17 17 16 16 16 14 10 9 9 8 9 9 9 9 11 12 14 15 15 14 16 15 14 14 13 13 12 13 13 13 13 13 12 12 13 13 12 13 13 13 12 12 13 12 14 24 32 32 29 30 35 35 36 40 42 45 51 57 61
25 25 25 24 24 25 25 26 25 26 26 25 26 26 25 24 22 20 18 15 12 10 10 9 9 9 9 11 15 18 19 16 14 13 11 9 9 8 7 8 9 8 10 12 14 15 15 15 15 17 16 15 15 14 14 13 13 13 14 14 13 13 13 12 12 12 12 12 12 12 12 13 12 13 24 33 34 32 33 38 39 41 45 47 50 56 57 58
25 24 25 24 23 23 22 23 23 24 25 24 24 23 23 22 20 20 19 17 15 12 10 10 10 9 10 12 13 16 16 15 13 12 11 10 8 7 7 8 8 8 11 14 16 16 16 16 16 17 16 15 15 15 14 14 14 14 14 14 14 13 11 10 11 11 11 11 11 11 11 13 11 14 25 32 34 34 35 39 44 47 49 51 54 56 57 55
24 23 23 22 22 21 20 20 21 22 22 21 21 20 20 20 20 19 19 19 17 15 12 11 10 10 12 13 13 15 15 14 14 12 11 10 7 8 8 8 8 9 13 15 16 15 15 16 16 16 15 14 15 15 14 15 15 15 14 13 13 12 11 9 9 9 10 10 10 11 12 13 12 18 28 31 33 34 38 43 47 50 50 52 54 55 59 58
22 22 21 21 21 20 18 18 18 19 19 18 17 16 18 19 20 19 19 19 18 17 15 12 13 14 16 14 12 15 15 14 15 13 11 10 9 10 9 10 10 11 14 16 15 15 15 16 15 14 13 13 15 15 15 15 15 14 14 14 12 11 12 10 9 9 10 12 12 12 14 14 14 23 30 30 32 35 40 47 50 54 55 55 58 57 59 61
20 20 20 20 20 19 18 16 15 16 16 16 15 14 16 17 19 19 19 20 19 19 16 15 18 19 20 16 12 17 17 14 15 13 12 11 10 11 10 10 11 11 13 14 13 14 14 15 14 13 13 13 15 15 16 17 15 14 14 17 16 13 14 13 12 13 13 15 15 15 17 16 16 25 30 31 34 35 42 52 54 55 59 58 57 58 59 61
18 18 18 18 18 17 16 14 14 14 14 14 14 15 15 15 17 19 20 20 19 19 17 17 21 22 22 19 17 20 19 16 15 13 12 11 10 11 10 10 11 11 12 13 13 14 15 14 13 12 12 13 15 16 17 17 17 17 17 18 19 17 16 16 15 16 17 20 19 18 20 19 19 24 29 30 33 40 51 60 58 54 55 53 53 56 59 60
16 16 16 16 16 15 15 13 13 12 12 13 14 16 17 18 19 18 19 20 21 21 18 18 21 22 21 20 21 22 22 20 17 14 13 11 11 12 11 12 11 10 12 13 13 13 13 12 12 13 13 15 17 17 18 18 19 22 22 22 24 23 21 20 19 18 19 22 22 20 21 21 22 25 30 32 38 49 58 60 59 56 54 50 48 51 55 57
15 14 15 15 15 14 14 13 13 12 12 13 16 20 23 25 25 25 25 23 22 21 20 20 21 22 22 22 23 24 24 22 17 15 13 12 13 12 12 13 12 11 12 13 13 12 11 12 13 14 17 18 18 18 19 21 21 25 28 29 32 32 28 25 23 21 20 23 24 22 21 22 25 30 35 39 44 52 57 56 56 57 55 52 47 46 49 53
14 14 13 14 14 13 13 13 14 13 13 15 20 24 27 29 31 34 35 30 24 20 18 18 18 21 25 24 24 25 25 23 18 16 14 14 13 12 13 14 14 13 13 14 14 12 12 13 14 15 16 17 18 18 19 21 21 24 30 32 34 35 33 30 27 22 22 26 26 23 23 25 28 33 37 40 43 48 52 54 54 54 56 54 49 45 45 50
14 14 14 14 14 14 14 14 15 16 17 21 25 29 31 31 33 34 33 30 26 22 20 18 17 20 24 24 24 25 27 24 21 19 16 15 14 13 14 14 14 15 15 17 17 15 14 14 16 17 17 19 22 23 24 25 25 28 33 33 34 37 36 34 31 27 27 30 28 26 26 27 30 32 37 43 48 50 51 53 54 54 55 53 49 47 47 50
16 15 15 15 15 16 16 16 18 19 21 23 27 31 29 29 31 28 26 27 27 24 21 19 19 22 24 25 24 24 26 25 23 21 17 16 15 15 15 15 15 16 18 18 18 17 15 16 19 23 25 26 27 30 33 33 31 31 33 33 35 40 38 35 35 34 33 33 31 32 30 28 30 32 36 44 51 52 51 52 53 53 51 48 47 47 47 48
18 16 17 16 16 18 19 19 20 20 21 22 25 29 27 26 26 24 23 24 25 24 21 18 20 23 24 25 24 24 26 26 24 22 19 17 16 16 16 16 16 18 19 19 18 19 19 20 23 26 28 29 30 35 37 36 33 31 32 34 37 40 39 37 38 39 37 36 35 37 35 32 34 34 34 41 46 48 48 46 48 50 49 47 46 47 47 44
20 19 18 17 17 18 20 23 22 22 23 24 27 27 27 26 24 25 25 22 21 21 19 17 18 21 22 23 24 24 26 25 24 23 20 18 17 16 16 17 17 18 20 20 21 22 24 25 25 26 28 30 31 33 36 36 34 33 32 35 39 41 39 38 41 43 42 41 39 39 38 37 38 36 34 37 40 44 48 48 48 49 48 46 44 45 46 44
21 21 20 20 19 17 19 21 23 25 27 32 33 30 29 28 24 24 24 22 20 18 16 15 16 17 20 23 23 25 26 25 24 22 21 20 17 16 16 17 18 17 19 22 24 24 24 25 26 28 30 32 30 29 34 34 32 37 37 35 39 41 40 39 43 48 49 48 45 42 41 40 38 35 35 38 40 45 49 51 51 48 46 47 45 45 45 44
20 21 21 21 20 19 18 18 24 31 34 38 36 29 29 29 27 26 24 25 25 20 17 16 17 17 18 23 24 24 26 26 24 23 23 22 20 19 19 17 17 18 20 22 24 24 24 23 24 28 30 30 29 29 33 33 30 35 38 38 42 43 42 42 44 49 49 48 45 40 42 46 42 37 39 41 43 46 48 48 48 45 46 48 47 44 43 43
22 22 21 22 21 21 18 16 25 33 36 40 35 28 28 28 28 28 30 36 35 27 22 21 25 25 22 24 26 25 27 27 26 26 26 24 24 25 23 20 18 20 22 24 25 24 24 24 25 29 32 31 30 29 30 34 31 29 32 38 44 46 45 45 44 45 45 45 45 41 41 45 42 38 40 42 42 44 45 45 45 44 45 47 45 42 42 45
21 22 22 23 23 23 21 18 22 28 33 35 31 28 31 31 27 25 35 45 42 35 31 27 31 34 30 27 27 28 30 30 27 27 27 26 27 27 26 25 22 22 25 27 28 28 28 30 29 31 35 34 32 30 31 35 31 29 30 32 38 44 44 46 44 42 42 40 42 44 39 37 37 37 40 40 39 42 43 42 44 44 44 46 45 45 48 50
21 21 21 21 22 23 23 21 23 27 31 30 26 28 32 33 27 26 38 46 42 39 38 34 33 33 31 31 31 29 31 33 31 31 30 29 30 30 29 28 26 27 28 27 30 32 32 32 33 35 36 35 34 34 35 34 30 30 32 29 32 40 44 47 45 43 43 36 37 45 38 34 40 41 41 40 37 40 43 41 42 45 46 46 45 45 49 52
23 22 20 20 20 22 24 24 27 31 31 27 25 26 25 24 25 32 43 43 40 40 39 38 37 32 30 33 33 31 32 35 35 35 35 34 34 32 30 30 29 29 29 28 31 33 32 33 38 39 37 38 38 36 34 32 30 31 32 30 29 35 41 45 44 44 47 42 43 49 40 35 43 44 43 43 39 39 41 41 42 45 46 48 47 47 51 57
23 23 22 20 19 20 22 24 30 34 33 29 28 26 20 21 28 41 48 39 36 41 40 41 42 37 35 35 35 35 36 37 36 35 36 36 36 34 32 31 30 30 34 35 33 33 33 33 36 37 37 39 37 36 34 31 29 30 31 31 31 34 37 42 44 42 43 47 49 50 44 41 46 45 44 45 41 41 43 42 42 43 46 50 51 50 55 60
20 21 23 23 20 21 21 25 32 35 35 35 32 27 23 26 34 48 52 39 37 44 41 42 43 41 41 40 39 40 40 40 39 37 35 34 36 38 36 35 33 34 41 41 35 36 38 34 35 36 35 35 33 33 34 32 31 30 30 32 33 37 37 41 45 38 40 51 51 47 44 43 47 47 44 44 42 43 44 44 44 45 47 50 51 54 59 61
16 17 21 22 23 24 22 25 29 29 32 36 34 29 30 38 44 47 46 39 43 49 45 44 46 44 45 45 44 46 44 41 39 36 35 34 36 39 41 41 39 37 42 42 37 40 42 39 39 36 33 33 32 32 32 33 34 32 33 36 38 41 43 49 54 47 47 52 49 46 44 42 50 51 44 43 44 43 45 44 44 46 48 49 53 58 61 60
14 14 16 18 22 24 24 24 25 24 28 31 30 32 38 49 52 45 38 34 39 45 46 49 50 47 49 49 49 50 47 43 40 36 36 36 37 40 41 42 41 37 40 42 40 41 44 45 42 36 34 32 32 34 34 37 38 34 36 39 41 46 51 57 60 54 53 53 48 48 47 46 53 53 46 44 44 45 45 44 45 45 47 51 57 61 61 59
10 11 12 14 17 20 23 24 25 25 29 29 30 36 42 48 49 44 41 37 36 41 44 48 51 51 52 51 51 51 48 48 45 42 42 40 39 43 43 41 39 36 38 40 41 41 44 49 46 39 38 37 37 39 37 37 39 38 38 38 38 43 48 52 55 53 54 53 48 48 49 50 52 54 54 50 48 50 47 47 49 50 52 56 60 63 63 61
8 9 9 9 11 15 19 22 24 26 30 32 34 39 42 42 41 40 40 38 39 43 42 42 46 52 55 53 50 49 49 52 51 47 48 47 45 46 45 43 42 40 39 40 42 40 39 46 48 43 42 42 42 42 38 35 39 42 40 36 35 41 45 47 50 54 54 51 48 48 50 52 51 56 60 56 56 61 58 55 55 55 57 59 62 65 66 64
8 7 7 7 7 9 12 17 21 23 28 36 40 41 39 37 34 35 37 38 43 46 42 41 44 51 58 57 50 47 48 53 53 50 50 50 50 49 44 44 46 43 42 45 47 44 40 44 47 45 44 44 44 43 38 35 39 43 40 37 38 41 45 47 49 54 54 52 52 49 47 51 53 57 59 57 60 64 64 64 63 62 63 64 66 70 69 66
9 7 8 7 5 7 8 12 17 19 25 37 44 44 39 32 28 31 36 39 45 47 44 44 46 49 56 58 55 51 49 51 53 53 54 54 55 53 46 45 48 45 43 46 48 47 46 47 47 45 43 44 44 42 40 38 38 41 40 39 40 41 45 49 51 54 53 56 60 54 52 56 58 61 61 60 60 60 63 66 66 66 67 67 71 75 73 71
14 10 8 6 6 5 6 12 15 16 24 37 45 45 40 32 27 31 37 38 43 49 47 45 47 47 49 55 60 58 52 53 55 54 54 55 57 58 52 47 47 45 43 45 47 47 46 47 49 46 41 42 42 40 42 42 38 37 38 39 39 42 46 47 46 49 50 54 56 55 57 60 58 61 63 62 60 60 63 65 64 65 65 66 69 71 73 74
17 14 11 12 12 7 7 15 16 15 25 37 42 41 36 32 30 33 37 37 42 49 50 47 46 46 46 50 56 57 53 53 54 52 51 54 57 58 56 51 48 45 44 45 46 46 44 45 49 47 41 42 44 41 43 45 42 39 39 39 40 43 45 43 43 46 46 50 55 57 60 60 60 63 62 59 59 60 62 64 63 64 65 64 65 66 68 67
20 16 15 18 20 14 11 17 18 20 29 35 35 33 31 30 30 31 32 34 40 48 52 51 49 47 47 45 48 51 51 51 51 50 53 56 57 58 57 54 50 46 44 44 44 46 45 45 49 49 45 46 46 42 41 42 43 42 42 41 40 42 42 40 42 44 43 50 58 60 61 62 66 67 61 58 61 62 63 64 63 64 65 65 64 63 63 62
29 25 23 25 26 19 18 25 27 28 33 34 31 27 26 27 27 27 28 32 39 45 48 51 52 50 48 46 45 45 47 51 51 51 55 56 55 56 55 53 51 47 46 46 46 48 49 48 49 50 48 48 48 44 40 39 39 39 40 41 42 42 40 40 44 46 43 46 52 54 57 62 65 64 60 60 64 64 63 63 66 68 68 67 65 64 64 64
39 38 34 34 33 25 26 35 38 37 38 34 30 26 24 23 25 25 25 30 38 42 42 47 50 49 48 46 46 44 46 51 51 51 54 55 54 54 51 49 48 48 51 53 50 49 52 53 50 48 46 45 45 44 43 41 38 36 38 43 45 46 45 45 50 52 47 46 52 54 56 61 63 60 56 57 60 61 60 62 65 66 67 68 66 65 65 65
45 48 44 41 39 31 33 45 50 49 45 34 27 25 24 24 25 27 28 31 37 40 42 46 47 45 46 46 46 46 45 48 50 50 51 53 52 52 51 50 48 47 52 55 52 50 53 53 47 47 50 46 43 44 43 41 41 40 42 44 44 46 49 49 51 53 50 49 55 58 58 63 66 61 55 53 54 56 56 58 61 63 65 65 64 64 64 63
44 56 56 50 46 42 49 62 63 57 49 36 28 28 28 27 27 29 31 34 38 39 42 46 45 42 42 42 45 48 46 47 51 52 51 49 50 50 51 51 50 51 51 52 52 51 52 52 50 52 54 49 44 45 42 38 40 44 46 46 43 42 43 41 41 47 50 48 52 56 57 61 63 59 56 53 52 52 52 54 57 59 59 59 57 58 59 60
36 54 61 59 55 54 61 66 61 56 51 41 35 34 33 29 28 31 35 38 39 40 41 44 42 40 42 42 43 47 48 48 51 54 54 50 47 48 51 50 51 53 52 49 49 51 52 55 57 59 56 50 48 46 39 33 35 39 40 41 44 42 38 36 36 41 45 43 46 51 52 54 55 53 52 50 48 49 49 49 51 54 53 52 52 52 54 55
35 49 61 67 66 65 68 65 58 55 53 45 39 37 36 35 33 35 40 42 42 42 42 43 41 41 43 44 46 49 51 50 52 56 58 55 49 47 51 53 51 53 53 49 47 51 54 54 56 60 57 51 51 46 37 31 30 32 32 34 40 42 39 38 38 40 41 39 41 48 51 53 53 51 53 52 49 50 49 47 48 49 48 48 48 49 49 51
39 49 60 70 75 74 73 68 63 57 50 45 45 43 44 44 40 40 43 43 43 44 43 43 42 43 45 46 51 57 57 54 53 56 59 61 56 48 48 52 53 52 51 48 47 52 56 52 50 54 52 47 46 41 35 31 29 29 31 34 40 43 42 40 39 42 44 42 44 51 54 54 54 52 54 55 52 52 52 51 50 49 48 49 49 49 50 51
39 50 57 66 77 84 82 76 71 62 54 50 49 48 48 47 44 43 45 43 42 44 46 45 43 43 43 44 50 57 59 58 57 55 54 57 59 54 49 50 52 50 48 47 48 51 54 50 45 45 44 43 41 38 36 33 29 29 32 35 39 41 42 43 43 46 48 48 52 55 54 56 55 51 50 50 50 50 49 49 49 47 47 49 49 48 48 49
32 46 60 69 79 87 86 80 76 71 66 61 55 49 48 48 45 43 45 47 45 44 47 49 47 45 44 44 47 52 56 57 60 59 53 52 55 54 50 48 47 44 44 44 43 42 44 42 39 40 41 39 37 36 34 32 30 30 32 34 35 36 38 40 43 47 49 51 56 58 56 57 55 51 50 47 45 45 44 44 45 45 46 47 48 47 45 45
27 39 58 72 79 82 82 80 79 78 75 71 66 59 53 52 49 42 41 46 48 47 48 51 50 48 48 47 48 51 54 55 60 62 59 57 59 57 53 51 47 42 42 42 39 38 39 38 39 43 44 39 37 36 35 34 34 34 35 36 35 33 34 35 39 44 47 48 51 53 54 54 50 47 48 46 44 44 43 43 44 45 47 49 48 48 48 48
30 38 51 63 70 74 79 81 80 80 79 77 75 70 63 60 56 50 46 45 46 48 50 52 52 52 52 53 53 56 57 57 60 61 60 60 60 57 54 52 49 47 46 45 44 45 45 42 43 46 45 41 39 38 38 38 39 40 41 40 38 37 37 39 40 42 44 44 47 48 50 53 52 47 46 46 47 48 48 47 46 46 49 50 50 48 48 50
34 41 45 49 55 61 68 75 78 80 81 80 79 76 71 69 65 62 59 54 50 50 50 50 52 55 59 61 61 60 60 61 60 59 57 55 53 51 50 49 47 46 46 48 49 51 52 49 47 49 48 45 43 42 42 42 44 47 47 44 43 44 44 44 46 47 48 49 51 50 49 52 55 53 50 48 48 49 51 49 47 47 49 49 50 49 49 52